Regional Weather Roundup
Issued by NWS Goodland, KS

Home | Current Version | Previous Version | Text Only | Print | Product List | Glossary On
Versions: 1 2 3 4 5 6 7 8 9 10 11 12 13 14 15 16 17 18 19 20 21 22 23 24 25 26 27 28 29 30 31 32 33 34 35 36 37 38 39 40 41 42 43 44 45 46 47 48 49 50
000
ASUS43 KGLD 230208
RWRGLD

GOODLAND FORECAST AREA HOURLY WEATHER ROUNDUP
NATIONAL WEATHER SERVICE GOODLAND KS
800 PM MDT FRI MAY 22 2015

...OFFICIAL OBSERVATIONS...

CITY           SKY/WX    TMP DP  RH WIND       PRES   REMARKS
GOODLAND KS    CLOUDY    54  52  93 SE16      30.02R
HILL CITY KS   CLOUDY    55  54  96 SE8       30.08R FOG
IMPERIAL NEB   CLOUDY    49  47  93 SE15      30.04R FOG
MCCOOK NEB     CLOUDY    51  50  96 E15       30.07S FOG
AKRON CO       FOG       50  50 100 E13       30.01R VSB<1/4
BURLINGTON CO  CLOUDY    54  52  93 E21G29    29.97R
LIMON CO       LGT RAIN  51  48  89 N10       29.99R
$$

...UNOFFICIAL OBSERVATIONS...

CITY           SKY/WX    TMP DP  RH WIND       PRES   REMARKS
GOVE KS          N/A     55  32  41 MISG        N/A
LENORA KS        N/A     52  32  46 MISG        N/A
SHARON SPRINGS   N/A     56  54  92 MISG        N/A
TRENTON NEB      N/A     50  32  50 SE13        N/A
KIT CARSON CO    N/A     59  53  79 MISG        N/A
YUMA CO          N/A     54  54 100 E12         N/A
$$


USA.gov is the U.S. government's official web portal to all federal, state and local government web resources and services.